Flag Weather past 2 weeks in Aleppo, Syria

Now
60 °F

Passing clouds.


Feels Like: 60 °F
Forecast: 48 / 59 °F
Wind: 2 mph from Southeast

Location: Iskenderun

Current Time: Nov 23, 2014 at 7:42:12 PM

Latest Report: Nov 23, 2014 at 7:00 PM


Visibility: 9 mi

Pressure: 29.96 "Hg

Humidity: 55%

Dew point: 43 °F

Location of AleppoLocation

Historic Weather in Aleppo — Graph

°F

Aleppo temperature yesterday

Maximum temperature yesterday: 65 °F (at 3:00 PM)
Minimum temperature yesterday: 55 °F (at 11:00 PM)
Average temperature yesterday: 60 °F

Past Weeks' High & Low Weather Summary

 TemperatureHumidityPressure
High78 °F (Nov 9, 3:00 PM)91% (Nov 21, 3:00 PM)30.24 "Hg (Nov 21, 3:00 PM)
Low54 °F (Nov 23, 6:00 AM)14% (Nov 9, 1:00 PM)29.76 "Hg (Nov 22, 4:00 AM)
Average67 °F44%30.01 "Hg
* Reported Nov 8 6:00 PM — Nov 23 6:00 PM, Aleppo, Weather by CustomWeather, © 2014

Note: Actual official high and low records may vary slightly from our data, if they occured in-between our weather recording intervals... More about our weather records

Advertising

Aleppo weather history for previous 24 hours

 ConditionsComfort  
Time TempWeatherWind HumidityBarometerVisibility
6:00 PM
Nov 23
60 °FPassing clouds.1 mph46%29.96 "Hg12 mi
5:00 PM61 °FPassing clouds.1 mph52%29.96 "Hg12 mi
4:00 PM64 °FScattered clouds.2 mph43%29.96 "Hg12 mi
3:00 PM65 °FScattered clouds.1 mph42%29.96 "Hg12 mi
2:00 PM65 °FPartly sunny.2 mph44%29.96 "Hg12 mi
1:00 PM65 °FPartly sunny.1 mph45%29.98 "Hg12 mi
12:00 PM64 °FPartly sunny.3 mph47%29.99 "Hg12 mi
11:00 AM64 °FScattered clouds.3 mph45%30.01 "Hg12 mi
10:00 AM64 °FPassing clouds.1 mph42%30.02 "Hg12 mi
9:00 AM61 °FSunny.1 mph48%30.01 "Hg9 mi
8:00 AM56 °FSunny.3 mph58%30.01 "Hg12 mi
7:00 AM54 °FSunny.2 mph61%30.00 "Hg12 mi
6:00 AM54 °FClear.2 mph61%30.00 "Hg12 mi
5:00 AM55 °FClear.2 mph57%29.99 "Hg12 mi
4:00 AM54 °FClear.2 mph58%29.98 "Hg12 mi
3:00 AM55 °FClear.3 mph55%29.98 "Hg12 mi
2:00 AM54 °FClear.2 mph57%29.98 "Hg12 mi
1:00 AM55 °FClear.1 mph56%29.98 "Hg12 mi
12:00 AM55 °FClear.2 mph54%29.98 "Hg12 mi
11:00 PM
Nov 22
55 °FClear.2 mph54%29.98 "Hg12 mi
10:00 PM56 °FClear.1 mph54%29.97 "Hg12 mi
9:00 PM58 °FClear.No wind45%29.96 "Hg12 mi
8:00 PM62 °FClear.5 mph40%29.94 "Hg12 mi
7:00 PM63 °FPassing clouds.5 mph46%29.92 "Hg12 mi
Weather by CustomWeather, © 2014

See weather overviewHow to use our weather pages